520  
ASUS42 KTBW 261810  
RWRFL  
FLORIDA REGIONAL WEATHER ROUNDUP  
NATIONAL WEATHER SERVICE TAMPA BAY RUSKIN FL  
100 PM EST WED NOV 26 2014  
 
NOTE: "FAIR" INDICATES FEW OR NO CLOUDS BELOW 12,000 FEET WITH NO  
SIGNIFICANT WEATHER AND/OR S TO VISIBILITY
.  
 
 
FLZ001>010-012>015-112-114-115-261900-  
PANHANDLE FLORIDA  
 
CITY SKY/WX TMP DP RH WIND PRES REMARKS
 
PENSACOLA FAIR 60 26 27 NW8 30.22F  
PENSACOLA NAS FAIR 61 30 31 VRB7 30.22F  
MILTON NAS FAIR 59 26 28 NW7 30.22F  
CRESTVIEW SUNNY 61 28 28 N10 30.21F  
DUKE FIELD FAIR 59 27 29 NW6 30.20F  
VALPARAISO FAIR 61 29 29 NW10 30.21F  
MARY ESTHER FAIR 61 23 23 VRB6 30.21S  
TRI COUNTY FAIR 60 34 37 VRB7 30.19F  
PANAMA CITY FAIR 60 33 36 NW15 30.19F  
TYNDALL AFB SUNNY 60 38 44 NW9 30.21F  
APALACHICOLA SUNNY 62 31 31 N18G28 30.19F  
 
STATION/POSITION SKY/WX TEMP WIND PRES WAVE SWELL
 
AIR SEA DIR/SP/G HT/PER HT/PER  
(F) (DEG/KT/KT) (MB) (FT/S) (FT/S)  
30.1N 87.6W 55 67 270/ 8/ 10 1023.8F 1/ 3  
29.2N 88.2W 59 71 310/ 8/ 10 1025.2F 2/ 5 2/ 5  
28.7N 86.0W 63 76 350/ 21/ 25 1023.1F 8/ 7  
PANAMA CITY BEAC 58 63 300/ 11/ 13 1022.7F  
CAPE SAN BLAS NOT AVBL  
TOWER C 56 330/ 17/ 18 1022.0F  
28.5N 84.5W 60 70 330/ 21/ 25 1022.3F 5/ 6  
 

 
FLZ011-016>038-118-127-128-134-139-239-261900-  
NORTH FLORIDA  
 
CITY SKY/WX TMP DP RH WIND PRES REMARKS
 
MARIANNA SUNNY 59 32 36 N12 30.17F  
TALLAHASSEE MOSUNNY 61 27 27 NW15 30.17F  
PERRY SUNNY 60 35 38 NW12G17 30.16F  
CROSS CITY N/A 63 40 42 NW15 30.14F  
LAKE CITY FAIR 59 45 58 W13 30.12F  
GAINESVILLE SUNNY 59 46 62 NW8 30.13F  
MAYPORT NAS PTSUNNY 56 47 71 W10 30.10F  
JACKSONVILLE MOSUNNY 57 47 69 W14 30.10F  
JAX NAS PTSUNNY 59 46 62 W7 30.12S  
JAX CRAIG PTSUNNY 57 47 69 W12 30.11S  
JAX CECIL MOSUNNY 59 46 63 NW12G20 30.12F  
FERNANDINA BEA FAIR 61 50 67 W14 30.08S  
ST AUGUSTINE CLOUDY 55 48 76 W12G18 30.11F  
 
STATION/POSITION SKY/WX TEMP WIND PRES WAVE SWELL
 
AIR SEA DIR/SP/G HT/PER HT/PER  
(F) (DEG/KT/KT) (MB) (FT/S) (FT/S)  
SHELL POINT 56 330/ 10/ 13 N/A  
KEATON BEACH 57 300/ 13/ 16 1021.5F  
CEDAR KEY 56 310/ 8/ 14 1022.0R  
FERNANDINA 54 61 280/ 13/ 17 1018.4S  
30.7N 81.3W 63 N/A 3/10  
MAYPORT 54 63 290/ 11/ 14 N/A  
31.4N 80.9W 54 64 300/ 17/ 21 1017.4F 4/ 4 2/10  
ST AUGUSTINE 54 300/ 11/ 14 1019.9F  
 

 
FLZ040-043>046-052-053-057-058-063-144-261900-  
INTERIOR CENTRAL FLORIDA  
 
CITY SKY/WX TMP DP RH WIND PRES REMARKS
 
OCALA MOSUNNY 57 46 67 NW8 30.15F  
THE VILLAGES N/A 57 50 77 W8 30.05F  
LEESBURG CLOUDY 55 49 80 NW9 30.15F  
SANFORD CLOUDY 55 50 83 NW12 30.12F  
ORLANDO EXEC CLOUDY 56 51 84 W12 30.13F  
ORLANDO INTL LGT RAIN 56 50 80 NW14 30.12F  
KISSIMMEE PTSUNNY 55 54 94 NW12 30.14F  
WINTER HAVEN CLOUDY 54 50 86 NW9 30.15F  
LAKELAND PTSUNNY 55 50 82 NW12 30.16F  
OKEECHOBEE CLOUDY 59 54 82 NW13G18 30.13F  
 

 
FLZ041-047-054-059-064-141-147-261900-  
EAST CENTRAL FLORIDA  
 
CITY SKY/WX TMP DP RH WIND PRES REMARKS
 
ORMOND BEACH CLOUDY 54 50 87 NW12 30.11F  
DAYTONA BEACH CLOUDY 55 51 86 W12 30.11F  
DELAND CLOUDY N/A N/A N/A NW10 30.12F  
NEW SMYRNA BEA PTSUNNY 55 52 88 W9 30.12F  
JFK SPACE CTR LGT RAIN 55 53 90 NW17 30.08F  
TITUSVILLE PTSUNNY 54 54 100 NW17 30.09F FOG  
CAPE CANAVERAL CLOUDY 56 53 86 NW14 30.07F  
PATRICK AFB CLOUDY 57 54 88 NW13 30.09F  
MELBOURNE CLOUDY 59 54 83 NW9 30.09F  
VERO BEACH CLOUDY 58 54 86 NW9 30.10S  
FT PIERCE CLOUDY 59 55 87 NW14 30.11R  
STUART CLOUDY 59 57 94 W14G25 30.12R  
 
STATION/POSITION SKY/WX TEMP WIND PRES WAVE SWELL
 
AIR SEA DIR/SP/G HT/PER HT/PER  
(F) (DEG/KT/KT) (MB) (FT/S) (FT/S)  
28.5N 80.2W 60 78 310/ 23/ 31 1018.8R  
28.9N 78.5W 70 78 310/ 19/ 21 1015.3F 8/ 9 3/ 9  
TRIDENT PIER 57 70 320/ 10/ 13 1018.2F  
28.4N 80.5W 70 N/A 3/ 9  
27.6N 80.2W 78 N/A 4/ 4  
 

 
FLZ050-056-061-142-242-148-248-149-249-151-251-155-255-  
160-260-261900-  
WEST CENTRAL FLORIDA  
 
CITY SKY/WX TMP DP RH WIND PRES REMARKS
 
CRYSTAL RIVER FAIR 59 46 63 NW8 30.16F  
INVERNESS FAIR 59 48 67 NW3 30.16F  
BROOKSVILLE MOSUNNY 60 47 61 NW12 30.16F  
ZEPHYRHILLS FAIR 55 50 82 NW12 30.17F  
CLEARWATER MOSUNNY 61 51 70 NW18 30.17F  
TAMPA INTL PTSUNNY 60 47 61 NW17G23 30.17F  
TAMPA EXEC CLOUDY 61 50 67 NW7 30.17S  
PLANT CITY CLOUDY 59 52 77 NW12G17 30.17F  
MACDILL AFB PTSUNNY 60 53 76 N10 30.17F  
PETER O KNIGHT CLOUDY 61 52 72 N7 30.17S  
ST PETERSBURG PTSUNNY 61 49 64 N13 30.15F  
SARASOTA CLOUDY 59 51 75 N12 30.15F  
VENICE FAIR 61 52 72 N8G17 30.16F  
 
STATION/POSITION SKY/WX TEMP WIND PRES WAVE SWELL
 
AIR SEA DIR/SP/G HT/PER HT/PER  
(F) (DEG/KT/KT) (MB) (FT/S) (FT/S)  
CEDAR KEY 56 310/ 8/ 14 1022.0R  
28.5N 84.5W 60 70 330/ 21/ 25 1022.3F 5/ 6  
27.3N 84.3W 78 N/A 7/ 8  
CLEARWATER BEACH 59 65 340/ 19/ 21 1021.4F  
MIDDLE TAMPA BAY 59 350/ 13/ 17 1021.8S  
VENICE 60 69 350/ 15/ 18 1020.7F  
 

 
FLZ066-069-070-075>078-162-262-165-265-261900-  
SOUTHWEST FLORIDA AND KEYS  
 
CITY SKY/WX TMP DP RH WIND PRES REMARKS
 
PUNTA GORDA CLOUDY 61 51 70 NW16 30.16F  
FT MYERS CLOUDY 65 54 67 N13 30.13F  
SOUTHWEST INTL CLOUDY 63 56 78 N9 30.14F  
NAPLES CLOUDY 64 56 75 N14G20 30.12F  
MARCO ISLAND MOCLDY 66 57 72 N15G22 30.10F  
MARATHON CLOUDY 71 65 81 NW17G28 30.08F  
KEY WEST NAS CLOUDY 71 64 78 N25G31 30.08F  
KEY WEST INTL PTSUNNY 73 64 73 N21G31 30.08F  
 
STATION/POSITION SKY/WX TEMP WIND PRES WAVE SWELL
 
AIR SEA DIR/SP/G HT/PER HT/PER  
(F) (DEG/KT/KT) (MB) (FT/S) (FT/S)  
VENICE 60 69 350/ 15/ 18 1020.7F  
NAPLES 63 76 350/ 19/ 22 1020.7F  
26.0N 85.6W 69 80 350/ 17/ 27 1021.8F 7/ 8 3/14  
DRY TORTUGAS 72 360/ 19/ 20 1020.1R  
NW FL BAY 70 340/ 22/ 27 1019.5R  
SAND KEY 71 350/ 25/ 29 1018.7F  
SOMBRERO KEY 69 340/ 26/ 28 1018.9F  
LONG KEY 71 79 340/ 20/ 23 1019.4F  
MOLASSES REEF 73 78 330/ 19/ 22 1017.1F  
 

 
FLZ067-068-071>074-168-172>174-261900-  
SOUTHEAST FLORIDA  
 
CITY SKY/WX TMP DP RH WIND PRES REMARKS
 
W PALM BEACH CLOUDY 67 61 81 NW16G26 30.06F  
FT LAUDER-EXEC CLOUDY 68 62 81 NW14G24 30.06F  
FT LAUDERDALE CLOUDY 70 63 78 NW17G24 30.05F  
POMPANO BEACH PTSUNNY 70 61 73 NW21G29 30.06F  
PEMBROKE PINES CLOUDY 70 63 78 NW16G24 30.07F  
OPA LOCKA CLOUDY 72 63 73 NW20G25 30.06F  
MIAMI CLOUDY 71 62 73 NW15G25 30.06F  
WEST KENDALL CLOUDY 70 62 76 N18 30.07F  
HOMESTEAD PTSUNNY 74 64 71 N17 30.05F  
 
STATION/POSITION SKY/WX TEMP WIND PRES WAVE SWELL
 
AIR SEA DIR/SP/G HT/PER HT/PER  
(F) (DEG/KT/KT) (MB) (FT/S) (FT/S)  
PORT EVERGLADES 69 310/ 14/ 19 1017.8  
VIRGINIA KEY 73 78 330/ 8/ 14 1018.2F  
LAKE WORTH 67 78 330/ 11/ 16 1017.7F  
FOWEY ROCKS 72 79 320/ 19/ 21 1017.7F  
 
CLICK HERE TO GO TO PREVIOUS BULLETINS.

The Nexlab FL Page Main Text Page